Location: Mahannah Oil Field
(37.4664°N, 96.6003°W)
Time: 05:44:50
(UTC+00:00)

Courier 1B Rocket - Pass Details

Date: 22 January 2021
Orbit: 920 x 1202 km, 28.3° (Epoch: 05 March)

Event Time Altitude Azimuth Distance (km) Brightness Sun altitude
Rises 12:56:50 0° 223° (SW) 3,697 7.8 -8.2°
Reaches altitude 10° 12:59:58 10° 210° (SSW) 2,796 7.3 -7.6°
Maximum altitude 13:05:15 24° 159° (SSE) 2,034 7.2 -6.6°
Drops below altitude 10° 13:10:50 10° 108° (ESE) 2,966 9.5 -5.6°
Sets 13:14:15 0° 96° (E) 3,973 10.1 -4.9°
